Dallas Love, TX

7:29 PM CDT on May 20, 2018 (GMT -0500)
Dallas Love

Weather History for KDAL - July, 2013

Change the Weather History Date:

Tuesday, July 9, 2013

  Actual Average Record
Temperature  
Mean Temperature 90 °F -  
Max Temperature 100 °F 93 °F 102 °F (1998)
Min Temperature 80 °F 74 °F 75 °F (2002)
Cooling Degree Days 25    
Growing Degree Days 40 (Base 50)    
Moisture  
Dew Point 63 °F    
Average Humidity 43    
Maximum Humidity 72    
Minimum Humidity 21    
Precipitation  
Precipitation 0.00 in - - ()
Sea Level Pressure  
Sea Level Pressure 30.03 in    
Wind  
Wind Speed 9 mph (SSW)    
Max Wind Speed 15 mph    
Max Gust Speed 20 mph    
Visibility 10 miles    
Events      
Averages and records for this station are not official NWS values.
T = Trace of Precipitation, MM = Missing Value Source: NWS Daily Summary

Daily Weather History Graph

Daily Weather History Graph

Search for Another Location

Airport or City:

Astronomy

Jul. 09, 2013 Rise Set
Actual Time 6:26 AM CDT 8:38 PM CDT
Civil Twilight 5:58 AM CDT 9:06 PM CDT
Nautical Twilight 5:23 AM CDT 9:41 PM CDT
Astronomical Twilight 4:46 AM CDT 10:18 PM CDT
Moon 7:45 AM CDT (7/9) 9:25 PM CDT (7/9)
Length of Visible Light 15h 08m
Length of Day
14h 11m
New Moon, 2% of the Moon is Illuminated
Jul 9
New Moon
Jul 15
First Quarter
Jul 22
Full
Jul 29
Last Quarter
Aug 6
New

Hourly Weather History & Observations

Time (CDT) Temp. Heat Index Dew Point Humidity Pressure Visibility Wind Dir Wind Speed Gust Speed Precip Events Conditions
12:53 AM 86.0 °F 86.3 °F 62.1 °F 44% 30.04 in 10.0 mi South 5.8 mph - N/A   Clear
1:53 AM 84.9 °F 85.9 °F 63.0 °F 48% 30.05 in 10.0 mi South 8.1 mph - N/A   Clear
2:53 AM 84.0 °F 86.3 °F 66.0 °F 55% 30.05 in 10.0 mi South 9.2 mph - N/A   Clear
3:53 AM 82.9 °F 85.4 °F 66.9 °F 58% 30.05 in 10.0 mi SSW 6.9 mph - N/A   Clear
4:53 AM 82.0 °F 84.9 °F 68.0 °F 62% 30.06 in 10.0 mi South 5.8 mph - N/A   Clear
5:53 AM 81.0 °F 84.1 °F 69.1 °F 67% 30.06 in 10.0 mi South 10.4 mph - N/A   Partly Cloudy
6:53 AM 80.1 °F 83.2 °F 70.0 °F 71% 30.07 in 10.0 mi South 10.4 mph - N/A   Partly Cloudy
7:53 AM 81.0 °F 84.9 °F 71.1 °F 72% 30.09 in 10.0 mi South 9.2 mph - N/A   Partly Cloudy
8:53 AM 84.0 °F 88.4 °F 70.0 °F 63% 30.10 in 10.0 mi SSW 10.4 mph 17.3 mph N/A   Scattered Clouds
9:53 AM 86.0 °F 90.1 °F 69.1 °F 57% 30.10 in 10.0 mi SSW 9.2 mph - N/A   Scattered Clouds
10:53 AM 89.1 °F 92.1 °F 66.9 °F 48% 30.10 in 10.0 mi SW 10.4 mph - N/A   Scattered Clouds
11:53 AM 93.0 °F 95.0 °F 64.9 °F 39% 30.09 in 10.0 mi SSW 15.0 mph 19.6 mph N/A   Scattered Clouds
12:53 PM 95.0 °F 96.0 °F 63.0 °F 34% 30.08 in 10.0 mi WSW 9.2 mph 18.4 mph N/A   Scattered Clouds
1:53 PM 96.1 °F 95.6 °F 59.0 °F 29% 30.06 in 10.0 mi SSW 10.4 mph - N/A   Scattered Clouds
2:53 PM 99.0 °F 98.1 °F 57.0 °F 25% 30.04 in 10.0 mi SSW 12.7 mph 18.4 mph N/A   Scattered Clouds
3:53 PM 100.0 °F 97.9 °F 54.0 °F 21% 30.01 in 10.0 mi SW 11.5 mph - N/A   Scattered Clouds
4:53 PM 100.9 °F 99.1 °F 54.0 °F 21% 29.99 in 10.0 mi WSW 8.1 mph 17.3 mph N/A   Scattered Clouds
5:53 PM 100.0 °F 99.7 °F 57.9 °F 25% 29.97 in 10.0 mi South 13.8 mph 19.6 mph N/A   Scattered Clouds
6:53 PM 99.0 °F 98.1 °F 57.9 °F 25% 29.96 in 10.0 mi SSW 8.1 mph - N/A   Scattered Clouds
7:53 PM 97.0 °F 96.5 °F 59.0 °F 28% 29.95 in 10.0 mi South 12.7 mph - N/A   Scattered Clouds
8:53 PM 95.0 °F 95.2 °F 61.0 °F 32% 29.95 in 10.0 mi South 11.5 mph - N/A   Partly Cloudy
9:53 PM 91.9 °F 92.5 °F 62.1 °F 37% 29.96 in 10.0 mi South 8.1 mph - N/A   Partly Cloudy
10:53 PM 91.9 °F 92.5 °F 62.1 °F 37% 29.97 in 10.0 mi South 9.2 mph - N/A   Partly Cloudy
11:53 PM 91.0 °F 91.9 °F 63.0 °F 39% 29.99 in 10.0 mi South 10.4 mph - N/A   Partly Cloudy